Погода в Астаре

Погода в Астаре : погода сейчас, прогноз погоды и архив. Всё, что Вы хотите узнать о погоде в Астаре!

Поиск расширенной информации на нашем сайте:

Другие новости

Новости СМИ2

Главная страница сайта

Новости сайта

03.07.2017

Напоминаем, что на нашем специализированном сайте Метеоцентр.Азия вы можете получить высокодетализированные автоматические прогнозы погоды по пунктам России, СНГ и мира в авиационном формате (включающие направление и скорость ветра, видимость, явления погоды, количество и форму облачности, нижнюю и верхнюю границу облачности).


Погода в Астаре - сегодня

Время (UTC), дата Ветер
(°,м/с) 
Видим.   Явления Облачность Т
(°С)
Тd
(°С)
f(%) Тe
(°С)
Pmin
(гПа)
dP
(гПа)
Po
(мм)
O2
(г/м3)
Тmin Tmax R s Состояние
почвы
12 19.05.18 180 (Ю) 20000 м    ясно 
+23.7 +16.9 66 +35  1016.7  -1.1  764  280           
15 19.05.18 190 (Ю) 20000 м    3/0 верхняя 
[Ci fib]
+23.5 +19.1 76 +40  1016.2  -0.5  764  279           
21 19.05.18 тихо ()   4000 м    ясно 
+17.8 +15.2 85 +26  1016.1  -0.1  764  286           
00 20.05.18 260 (З) 4000 м    ясно 
+15.8 +12.7 82 +21  1017.4  1.3  765  289           
03 20.05.18 280 (З) 20000 м    1/0 средняя 
[Ac trans]
+16.9 +11.8 72 +21  1017.5  0.1  765  288           
06 20.05.18 170 (Ю) 20000 м    3/0 средняя 
[Ac trans]
+24.2 +15.6 59 +33  1016  -1.6  764  279  +15.6         
09 20.05.18 150 (ЮВ) 20000 м    4/0 средняя 
[Ac trans]
+24.2 +18.9 72 +40  1015.3  -0.7  763  278           
12 20.05.18 170 (Ю) 20000 м    3/0 средняя 
[Ac trans]
+24.8 +18.9 70 +40  1014.6  -0.7  763  277           
15 20.05.18 190 (Ю) 20000 м    8/0 средняя 
[Ac trans]
+23 +20.6 86 +42  1013.9  -0.7  762  278           
21 20.05.18 260 (З) 4000 м    1/0 средняя 
[Ac trans]
+20.6 +18.7 89 +36  1014.4  -0.1  763  281           
00 21.05.18 270 (З) 4000 м    1/0 средняя 
[Ac trans]
+18.4 +15.3 82 +29  1013.7  -0.7  762  285           
03 21.05.18 330 (СЗ) 20000 м    6/0 средняя 
[Ac trans]
+17.8 +13.9 78 +25  1015  1.3  763  286           
06 21.05.18 080 (В) 20000 м    4/0 средняя 
[Ac trans]
+25.8 +15.7 54 +35  1015.1  763  278  +17.6         
09 21.05.18 090 (В) 20000 м    6/0 средняя 
[Ac trans]
+24.6 +20.3 77 +43  1014.8  -0.3  763  277           
12 21.05.18 200 (Ю) 20000 м    8/8 1000 м кучево-дожд. 
[Cb cap]
+24.2 +17.1 65 +36  1014.7  -0.1  763  279           
15 21.05.18 190 (Ю) 20000 м    8/0 средняя 
[Ac trans]
+23.8 +20 79 +42  1013.1  -1.6  762  277           
18 21.05.18 190 (Ю) 4000 м    6/0 средняя 
[Ac trans]
+22 +19.2 84 +38  1014.3  1.3  763  280    +26       
21 21.05.18 280 (З) 4000 м    5/0 средняя 
[Ac trans]
+20.4 +16.8 80 +32  1014.3  763  282           
00 22.05.18 280 (З) 4000 м    ясно 
+19.2 +14.8 76 +29  1014.7  0.4  763  284           
03 22.05.18 270 (З) 20000 м    6/0 средняя 
[Ac trans]
+18.8 +14.7 77 +28    1.9  764  285           
06 22.05.18 090 (В) 20000 м    6/0 средняя 
[Ac trans]
+26.8 +15.7 51 +36  1018.1  1.4  765  278  +18.3         
09 22.05.18 050 (СВ) 20000 м    6/6 600 м средняя 
[Cu hum|Ac trans]
+26.3 +18.8 63 +42  1018.6  0.5  766  277           
12 22.05.18 130 (ЮВ) 20000 м    4/0 средняя 
[Ac trans]
+26 +19 65 +42  1018  -0.6  765  277           
15 22.05.18 150 (ЮВ) 20000 м    8/8 600 м 
[Sc]
+24 +18.3 70 +38  1018.1  0.1  765  279           
21 22.05.18 310 (СЗ) 4000 м    3/3 600 м 
[Cu hum]
+19 +14.9 77 +29  1018  -0.3  765  285           
Время (UTC), дата Ветер
(°,м/с) 
Видим.   Явления Облачность Т
(°С)
Тd
(°С)
f(%) Тe
(°С)
Pmin
(гПа)
dP
(гПа)
Po
(мм)
O2
(г/м3)
Тmin Tmax R s Состояние
почвы

Для получения пояснительной информации подведите курсор к названию столбца.

ПОГОДА в Астаре - архив

Всё, что Вы хотите узнать о погоде в Астаре - удобно и подробно!

Выберите нужную дату (начиная с 1 января 2015* года) и нажмите кнопку "Найти".
Будут отображены архивные сводки погоды по пункту Астара, начиная с указанной даты.


Отображать данные в формате CSV (для использования в таблицах Excel)


Внимание! Наш архив погоды предназначен исключительно для личного некоммерческого использования в познавательных целях. Если Вам необходимы официальные справки о состоянии погоды (для производственных, юридических, коммерческих и т.п. целей), обращайтесь в органы Росгидромета.

*Примечание: данная дата относится к архиву по метеостанциям СССР (Россия, СНГ, Балтия).
Архив по метеостанциям Зарубежной Европы и Азии (кроме Китая) хранится 10 дней, по другим регионам земного шара (Китай, Африка, Америка, Австралия, Океания) - 1 день.

Астара - район местоположения метеостанции


Название, широта, долгота, высота метеостанции:
Астара 38.4°ш. 48.9°д. -22 м над ур. моря [Азербайджан]

Дополнительная информация

В oтличие oт бoльшинства пoгoдных сайтoв мы публикуем пoдрoбную метеoинфoрмацию в детальнoм прoфессиoнальнoм фoрмате.

Характеристики температуры и влажнoсти вoздуха измеряются на высoте 2 м в тени вдали oт зданий и деревьев.
Скoрoсть ветра измеряется на высoте 10 м (на урoвне рoста челoвека скoрoсть ветра ниже в 1.5-2 раза). Если метеoстанция нахoдится в гoрoде или в лесу, тo скoрoсть ветра занижена на 2-4 м/с пo сравнению с oткрытым местoм. Скoрoсть ветра над акватoриями крупных рек и oзёр, а также на вершинах хoлмoв на 2-5 м/с выше, чем в oбычных услoвиях.
Атмoсфернoе давление в разных тoчках местнoсти мoжет значительнo oтличаться oт давления на метеoстанции, в зависимoсти oт услoвий рельефа (при пoдъёме на 10 м давление пoнижается примернo на 1 мм рт.ст.).